DW0880 Weather Reports


Display with metric or nautical units.
time (UTC)temp
F
wind
direction
speed
MPH
gust
MPH
rain 1hr
in
rain 24hr
in
rain mn
in
humidity
%
barometer
mb
20260503195548 57 115 0.0 1.0 0.00 0.00 0.00 64 1017.5
20260503195047 57 115 0.0 2.0 0.00 0.00 0.00 64 1017.4
20260503194548 57 115 0.0 7.0 0.00 0.00 0.00 64 1017.4
20260503194048 57 117 1.0 7.0 0.00 0.00 0.00 63 1017.3
20260503193548 58 90 2.0 6.0 0.00 0.00 0.00 63 1017.4
20260503193053 58 148 0.0 5.0 0.00 0.00 0.00 62 1017.3
20260503192547 58 306 0.0 3.0 0.00 0.00 0.00 62 1017.2
20260503192047 59 188 0.0 3.0 0.00 0.00 0.00 61 1017.2
20260503191546 59 175 1.0 3.0 0.00 0.00 0.00 61 1017.1
20260503191048 60 126 0.0 4.0 0.00 0.00 0.00 60 1017.0
20260503190548 60 106 0.0 4.0 0.00 0.00 0.00 59 1017.0
20260503190046 60 90 1.0 5.0 0.00 0.00 0.00 58 1016.9
20260503185549 61 86 2.0 5.0 0.00 0.00 0.00 58 1016.9
20260503185046 61 110 0.0 3.0 0.00 0.00 0.00 57 1016.8
20260503184555 62 103 1.0 4.0 0.00 0.00 0.00 56 1016.8
20260503184049 62 68 0.0 4.0 0.00 0.00 0.00 55 1016.7
20260503183547 63 107 0.0 3.0 0.00 0.00 0.00 55 1016.7
20260503183101 63 104 1.0 3.0 0.00 0.00 0.00 54 1016.7
20260503182545 64 121 0.0 3.0 0.00 0.00 0.00 54 1016.6
20260503182045 64 102 1.0 3.0 0.00 0.00 0.00 53 1016.7
20260503181544 65 114 1.0 3.0 0.00 0.00 0.00 52 1016.7
20260503181044 66 114 1.0 3.0 0.00 0.00 0.00 51 1016.6
20260503180546 67 104 1.0 3.0 0.00 0.00 0.00 51 1016.6
20260503180047 68 60 0.0 4.0 0.00 0.00 0.00 51 1016.5
20260503175543 68 60 0.0 5.0 0.00 0.00 0.00 50 1016.5
20260503175048 69 58 2.0 5.0 0.00 0.00 0.00 51 1016.5
20260503174544 69 70 1.0 4.0 0.00 0.00 0.00 50 1016.4
20260503174043 70 215 0.0 2.0 0.00 0.00 0.00 49 1016.4
20260503173543 70 215 0.0 2.0 0.00 0.00 0.00 48 1016.4
20260503173109 71 216 0.0 3.0 0.00 0.00 0.00 48 1016.4
20260503172545 71 224 0.0 3.0 0.00 0.00 0.00 46 1016.4
20260503172042 72 187 0.0 2.0 0.00 0.00 0.00 45 1016.4
20260503171545 72 187 0.0 2.0 0.00 0.00 0.00 45 1016.3
20260503171041 72 182 0.0 3.0 0.00 0.00 0.00 44 1016.3
20260503170542 73 194 1.0 3.0 0.00 0.00 0.00 44 1016.4
20260503150530 73 227 2.0 7.0 0.00 0.00 0.00 43 1017.2
20260503131019 73 321 2.0 10.0 0.00 0.00 0.00 46 1018.0
20260503130519 73 321 4.0 14.0 0.00 0.00 0.00 45 1018.1
20260503110502 69 290 2.0 9.0 0.00 0.00 0.00 47 1018.7
20260503081523 60 336 2.0 5.0 0.00 0.00 0.00 60 1020.4
20260503081023 60 332 2.0 8.0 0.00 0.00 0.00 62 1020.5
20260503080521 59 360 3.0 8.0 0.00 0.00 0.00 62 1020.5
20260503072512 55 313 1.0 3.0 0.00 0.00 0.00 66 1020.8
20260503072010 55 346 0.0 3.0 0.00 0.00 0.00 66 1020.9
20260503071510 54 9 1.0 4.0 0.00 0.00 0.00 67 1020.9
20260503071007 54 360 1.0 4.0 0.00 0.00 0.00 66 1020.9
20260503070507 53 327 0.0 2.0 0.00 0.00 0.00 66 1020.9
20260503055046 41 279 0.0 0.0 0.00 0.00 0.00 40 1020.8
20260503054545 40 279 0.0 0.0 0.00 0.00 0.00 43 1020.7
20260503054043 40 279 0.0 0.0 0.00 0.00 0.00 45 1020.7
20260503053542 39 279 0.0 0.0 0.00 0.00 0.00 48 1020.8
20260503053042 38 279 0.0 0.0 0.00 0.00 0.00 50 1020.8
20260503052540 38 279 0.0 0.0 0.00 0.00 0.00 51 1020.8
20260503052041 37 279 0.0 0.0 0.00 0.00 0.00 54 1020.8
20260503051538 37 279 0.0 0.0 0.00 0.00 0.00 55 1020.8
20260503051037 37 279 0.0 0.0 0.00 0.00 0.00 55 1020.8
20260503050537 38 279 0.0 0.0 0.00 0.00 0.00 55 1020.8
20260503050036 38 279 0.0 0.0 0.00 0.00 0.00 55 1020.8
20260503045538 38 279 0.0 0.0 0.00 0.00 0.00 55 1020.8
20260503045038 38 279 0.0 0.0 0.00 0.00 0.00 55 1020.7
20260503044534 38 279 0.0 0.0 0.00 0.00 0.00 55 1020.6
20260503044033 38 279 0.0 0.0 0.00 0.00 0.00 55 1020.6
20260503043533 38 279 0.0 1.0 0.00 0.00 0.00 56 1020.6
20260503043038 38 84 0.0 1.0 0.00 0.00 0.00 56 1020.5
20260503042532 38 84 0.0 1.0 0.00 0.00 0.00 56 1020.5
20260503042032 38 84 0.0 1.0 0.00 0.00 0.00 57 1020.5
20260503041532 38 84 0.0 1.0 0.00 0.00 0.00 57 1020.5
20260503041031 38 84 0.0 2.0 0.00 0.00 0.00 57 1020.4
20260503040530 38 84 0.0 2.0 0.00 0.00 0.00 58 1020.3
20260503040034 38 159 0.0 1.0 0.00 0.00 0.00 59 1020.3
20260503035528 38 159 0.0 0.0 0.00 0.00 0.00 59 1020.2
20260503035028 39 159 0.0 1.0 0.00 0.00 0.00 59 1020.2
20260503034538 39 159 0.0 1.0 0.00 0.00 0.00 59 1020.2
20260503034027 39 159 0.0 1.0 0.00 0.00 0.00 59 1020.2
20260503033526 39 159 0.0 0.0 0.00 0.00 0.00 59 1020.2
20260503033031 39 159 0.0 0.0 0.00 0.00 0.00 59 1020.1
20260503032525 39 159 0.0 0.0 0.00 0.00 0.00 60 1020.1
20260503032025 39 159 0.0 0.0 0.00 0.00 0.00 60 1020.2
20260503031524 39 159 0.0 0.0 0.00 0.00 0.00 61 1020.2
20260503031024 39 159 0.0 1.0 0.00 0.00 0.00 62 1020.3
20260503030522 39 159 0.0 1.0 0.00 0.00 0.00 62 1020.3
20260503030022 39 159 0.0 1.0 0.00 0.00 0.00 63 1020.4
20260503025521 39 159 0.0 1.0 0.00 0.00 0.00 64 1020.4
20260503025020 39 172 0.0 1.0 0.00 0.00 0.00 65 1020.4
20260503024519 39 172 0.0 1.0 0.00 0.00 0.00 65 1020.4
20260503024020 39 59 0.0 0.0 0.00 0.00 0.00 65 1020.4
20260503023518 40 55 0.0 0.0 0.00 0.00 0.00 65 1020.4
20260503023017 40 55 0.0 0.0 0.00 0.00 0.00 65 1020.4
20260503022516 40 55 0.0 0.0 0.00 0.00 0.00 65 1020.4
20260503022016 40 55 0.0 0.0 0.00 0.00 0.00 65 1020.4
20260503021515 40 55 0.0 0.0 0.00 0.00 0.00 65 1020.4
20260503021014 40 55 0.0 0.0 0.00 0.00 0.00 65 1020.4
20260503020516 40 55 0.0 0.0 0.00 0.00 0.00 65 1020.4
20260503020013 41 55 0.0 0.0 0.00 0.00 0.00 65 1020.3
20260503015512 41 55 0.0 1.0 0.00 0.00 0.00 65 1020.3
20260503015011 41 55 0.0 2.0 0.00 0.00 0.00 65 1020.4
20260503014516 41 56 0.0 2.0 0.00 0.00 0.00 66 1020.4
20260503014011 41 63 0.0 1.0 0.00 0.00 0.00 67 1020.4
20260503013510 41 63 0.0 1.0 0.00 0.00 0.00 67 1020.4
20260503013009 41 63 0.0 1.0 0.00 0.00 0.00 67 1020.4
20260503012509 41 63 0.0 0.0 0.00 0.00 0.00 67 1020.5
20260503012010 42 63 0.0 0.0 0.00 0.00 0.00 67 1020.5
20260503011508 42 63 0.0 1.0 0.00 0.00 0.00 67 1020.5
20260503011010 42 63 0.0 1.0 0.00 0.00 0.00 67 1020.4
20260503010505 42 63 0.0 2.0 0.00 0.00 0.00 67 1020.5
20260503010005 42 63 0.0 2.0 0.00 0.00 0.00 67 1020.5
20260503005509 42 63 0.0 0.0 0.00 0.00 0.00 67 1020.5
20260503005004 43 63 0.0 0.0 0.00 0.00 0.00 67 1020.5
20260503004502 43 63 0.0 1.0 0.00 0.00 0.00 67 1020.5
20260503004002 43 63 0.0 2.0 0.00 0.00 0.00 67 1020.6
20260503003501 43 63 0.0 2.0 0.00 0.00 0.00 67 1020.6
20260503003001 43 65 0.0 3.0 0.00 0.00 0.00 67 1020.6
20260503002500 43 65 0.0 3.0 0.00 0.00 0.00 67 1020.7
20260503002100 43 86 0.0 3.0 0.00 0.00 0.00 68 1020.6
20260503001601 43 86 0.0 3.0 0.00 0.00 0.00 68 1020.7
20260503001058 44 177 0.0 2.0 0.00 0.00 0.00 68 1020.7
20260503000557 44 186 0.0 2.0 0.00 0.00 0.00 68 1020.8
20260503000058 44 186 0.0 4.0 0.00 0.00 0.00 68 1020.8
20260502235556 44 184 1.0 4.0 0.00 0.00 0.00 68 1020.8
20260502235056 44 178 0.0 3.0 0.00 0.00 0.00 68 1020.8
20260502234556 44 129 1.0 5.0 0.00 0.00 0.00 68 1020.8
20260502234056 44 130 1.0 5.0 0.00 0.00 0.00 68 1020.9
20260502233554 44 59 3.0 5.0 0.00 0.00 0.00 68 1021.0
20260502233059 44 66 0.0 2.0 0.00 0.00 0.00 69 1021.1
20260502232553 44 304 0.0 1.0 0.00 0.00 0.00 69 1021.1
20260502232053 44 304 0.0 2.0 0.00 0.00 0.00 69 1021.1
20260502231602 44 281 0.0 2.0 0.00 0.00 0.00 69 1021.0
20260502231051 44 286 0.0 2.0 0.00 0.00 0.00 68 1021.0
20260502230551 44 99 0.0 2.0 0.00 0.00 0.00 68 1021.0
20260502230050 44 100 0.0 4.0 0.00 0.00 0.00 68 1021.0
20260502225550 45 99 0.0 4.0 0.00 0.00 0.00 68 1021.0
20260502225050 45 64 2.0 4.0 0.00 0.00 0.00 68 1021.0
20260502224547 45 134 0.0 1.0 0.00 0.00 0.00 68 1021.1
20260502224046 45 175 0.0 2.0 0.00 0.00 0.00 67 1021.0
20260502223545 45 175 0.0 2.0 0.00 0.00 0.00 67 1020.9
20260502223045 46 130 0.0 0.0 0.00 0.00 0.00 67 1020.9
20260502222544 46 121 0.0 0.0 0.00 0.00 0.00 67 1020.8
20260502222046 46 121 0.0 0.0 0.00 0.00 0.00 67 1020.9
20260502221543 46 121 0.0 0.0 0.00 0.00 0.00 66 1020.9
20260502221043 47 121 0.0 0.0 0.00 0.00 0.00 66 1020.9
20260502220540 47 121 0.0 0.0 0.00 0.00 0.00 66 1020.9
20260502220044 47 121 0.0 0.0 0.00 0.00 0.00 65 1020.8
20260502215540 47 121 0.0 0.0 0.00 0.00 0.00 66 1020.8
20260502215039 47 121 0.0 1.0 0.00 0.00 0.00 65 1020.8
20260502214539 48 121 0.0 2.0 0.00 0.00 0.00 65 1020.8
20260502214038 48 121 0.0 2.0 0.00 0.00 0.00 65 1020.8
20260502213538 48 127 0.0 1.0 0.00 0.00 0.00 65 1020.9
20260502213038 48 95 0.0 2.0 0.00 0.00 0.00 65 1020.8
20260502212538 48 95 0.0 2.0 0.00 0.00 0.00 65 1020.9
20260502212038 49 94 1.0 3.0 0.00 0.00 0.00 65 1020.9
20260502211545 49 121 1.0 3.0 0.00 0.00 0.00 64 1020.9
20260502211036 49 163 1.0 2.0 0.00 0.00 0.00 64 1021.0
20260502210536 50 166 0.0 3.0 0.00 0.00 0.00 64 1020.9
20260502210036 50 192 1.0 3.0 0.00 0.00 0.00 63 1021.0
20260502205536 50 86 0.0 2.0 0.00 0.00 0.00 62 1020.9
20260502205039 51 70 0.0 4.0 0.00 0.00 0.00 62 1021.0
20260502204536 51 62 0.0 4.0 0.00 0.00 0.00 61 1021.0
20260502204036 52 5 0.0 0.0 0.00 0.00 0.00 61 1021.0
20260502203535 52 5 0.0 2.0 0.00 0.00 0.00 60 1021.0
20260502203034 53 5 0.0 2.0 0.00 0.00 0.00 60 1020.9
20260502202539 53 59 0.0 3.0 0.00 0.00 0.00 60 1020.9
20260502202038 54 59 0.0 6.0 0.00 0.00 0.00 59 1020.9
20260502201537 54 55 2.0 6.0 0.00 0.00 0.00 59 1020.8
20260502201034 55 51 1.0 4.0 0.00 0.00 0.00 58 1020.8
20260502200534 56 98 0.0 3.0 0.00 0.00 0.00 57 1020.7
20260502200034 56 98 0.0 3.0 0.00 0.00 0.00 56 1020.7